{"data":{"norad_id":64798,"intl_designator":"2025-150J","name":"STARLINK-34649","alt_names":[],"object_type":"PAYLOAD","status":"ACTIVE","operator":null,"country":"US","launch_date":"2025-07-16","launch_site_code":"AFWTR","launch_vehicle":null,"mission":null,"orbit_class":"UNKNOWN","rcs_meters":null,"size_class":null,"mass_kg":null,"dimensions":null,"purposes":["comms"],"wikipedia_slug":null,"has_3d_model":false,"image_url":null,"decayed_at":null,"tle_current":{"epoch":"2026-09-20T13:19:34.045824Z","epoch_age_seconds":122846,"freshness":"FRESH","line1":"1 64798U 25150J   26263.55525516  .00002581  00000+0  22402-3 0  9998","line2":"2 64798  70.0027   3.2188 0003336 269.4894  90.5883 14.98336795 66595","mean_motion":14.98336795,"eccentricity":0.0003336,"inclination_deg":70.0027,"raan_deg":3.2188,"arg_perigee_deg":269.4894,"mean_anomaly_deg":90.5883,"bstar":0.00022402,"rev_number":6659,"period_min":96.106563277718,"perigee_km":569.71630070833,"apogee_km":574.35345538537,"semimajor_km":6950.1718780468,"source":"CELESTRAK","updated_at":"2026-09-21T09:00:35.443974Z"}}}